Location: ??????????
(31.2156°N, 29.9553°E)
Time: 07:36:18
(UTC+00:00)

Cosmos 1933 Rocket - Pass Details

Date: 03 March 2021
Orbit: 607 x 630 km, 82.5° (Epoch: 15 April)

Event Time Altitude Azimuth Distance (km) Brightness Sun altitude
Rises 17:14:47 0° 193° (SSW) 2,850 7.1 -16.8°
Reaches altitude 10° 17:17:01 10° 197° (SSW) 1,952 6.3 -17.3°
Maximum altitude 17:21:17 60° 277° (W) 701 4.1 -18.2°
Drops below altitude 10° 17:25:36 10° 358° (N) 1,975 6.2 -19.1°
Sets 17:27:52 0° 2° (N) 2,888 7.0 -19.6°
